Regional Weather Roundup
Issued by NWS

Home | Current Version | Previous Version | Text Only | Print | Product List | Glossary Off
Versions: 1 2 3 4 5 6 7 8 9 10 11 12 13 14 15 16 17 18 19 20 21 22 23 24 25 26 27 28 29 30 31 32 33 34 35 36 37 38 39 40 41 42 43 44 45 46 47 48 49 50

000
ASUS45 KCYS 290310
RWRWY

WYOMING REGIONAL WEATHER ROUNDUP
NATIONAL WEATHER SERVICE CHEYENNE WY
900 PM MDT MON JUL 28 2014

NOTE:  "FAIR" INDICATES FEW OR NO CLOUDS BELOW 12,000 FEET
WITH NO SIGNIFICANT WEATHER AND/OR OBSTRUCTIONS TO VISIBILITY.

WYZ001-290400-
YELLOWSTONE NATIONAL PARK

CITY           SKY/WX    TMP DP  RH WIND       PRES   REMARKS
LK YELLOWSTONE   N/A     63  39  41 VRB3      30.49S
W YELLOWSTONE  NOT AVBL

$$
WYZ002>013-054>058-071-098>099-290400-
NORTHERN WYOMING

CITY           SKY/WX    TMP DP  RH WIND       PRES   REMARKS
JACKSON        CLOUDY    72  43  35 N10       30.31S
CODY           NOT AVBL
GREYBULL       CLOUDY    87  44  22 NW20G26   30.13R
WORLAND        CLOUDY    86  40  19 E6        30.15R
SHERIDAN       PTCLDY    74  49  41 CALM      30.20R
BUFFALO        MOCLDY    77  43  29 E8        30.28R
GILLETTE       PTCLDY    74  50  42 E9        30.24R
HULETT         FAIR      70  52  52 MISG      30.26
NEWCASTLE      FAIR      73  48  40 MISG      30.24

$$
WYZ014>020-022>026-101>103-290400-
CENTRAL WYOMING

CITY           SKY/WX    TMP DP  RH WIND       PRES   REMARKS
BIG PINEY      CLOUDY    73  39  29 NW9       30.32R
PINEDALE       CLOUDY    70  41  35 NW6       30.32S
DUBOIS         FAIR      68  36  30 SE9       30.39S
LANDER         CLOUDY    79  38  22 NW10      30.20S
RIVERTON       CLOUDY    83  30  14 N20G25    30.22R
CASPER         CLEAR     78  36  21 E7        30.22S
DOUGLAS        CLEAR     74  48  39 E15       30.24R

$$
WYZ021-027>030-104>119-290400-
SOUTHERN WYOMING

CITY           SKY/WX    TMP DP  RH WIND       PRES   REMARKS
EVANSTON       CLOUDY    57  54  89 SW18G24   30.37S
FORT BRIDGER   CLOUDY    66  50  57 SW23G29   30.35F
ROCK SPRINGS   CLOUDY    75  41  29 NW10      30.31R
DIXON          FAIR      72  46  39 S9        30.34R
RAWLINS        MOCLDY    71  45  39 NE23G30   30.32R
SARATOGA       FAIR      72  43  35 SE12      30.33R
LARAMIE        MOCLDY    67  51  56 E12       30.38R
CHEYENNE       MOCLDY    65  55  70 S12       30.35R
TORRINGTON     CLEAR     76  55  48 SE12      30.20R
PINE BLUFFS    FAIR      64  61  88 S3        30.29S

$$


USA.gov is the U.S. government's official web portal to all federal, state and local government web resources and services.